Year,Month,Day,Hour,Minute,Value (Times are PST for temperature in C)
2015,07,28,00,00,17.40
2015,07,28,00,01,17.40
2015,07,28,00,02,17.40
2015,07,28,00,03,17.40
2015,07,28,00,04,17.40
2015,07,28,00,05,17.40
2015,07,28,00,06,17.40
2015,07,28,00,07,17.40
2015,07,28,00,08,17.40
2015,07,28,00,09,17.40
2015,07,28,00,10,17.40
2015,07,28,00,11,17.30
2015,07,28,00,12,17.30
2015,07,28,00,13,17.30
2015,07,28,00,14,17.30
2015,07,28,00,15,17.30
2015,07,28,00,16,17.30
2015,07,28,00,17,17.30
2015,07,28,00,18,17.30
2015,07,28,00,19,17.30
2015,07,28,00,20,17.20
2015,07,28,00,21,17.20
2015,07,28,00,22,17.20
2015,07,28,00,23,17.20
2015,07,28,00,24,17.20
2015,07,28,00,25,17.20
2015,07,28,00,26,17.20
2015,07,28,00,27,17.20
2015,07,28,00,28,17.20
2015,07,28,00,29,17.20
2015,07,28,00,30,17.20
2015,07,28,00,31,17.20
2015,07,28,00,32,17.20
2015,07,28,00,33,17.10
2015,07,28,00,34,17.00
2015,07,28,00,35,16.90
2015,07,28,00,36,16.80
2015,07,28,00,37,16.80
2015,07,28,00,38,16.80
2015,07,28,00,39,16.80
2015,07,28,00,40,16.80
2015,07,28,00,41,16.80
2015,07,28,00,42,16.80
2015,07,28,00,43,16.80
2015,07,28,00,44,16.80
2015,07,28,00,45,16.80
2015,07,28,00,46,16.80
2015,07,28,00,47,16.70
2015,07,28,00,48,16.70
2015,07,28,00,49,16.70
2015,07,28,00,50,16.70
2015,07,28,00,51,16.70
2015,07,28,00,52,16.70
2015,07,28,00,53,16.70
2015,07,28,00,54,16.70
2015,07,28,00,55,16.70
2015,07,28,00,56,16.70
2015,07,28,00,57,16.70
2015,07,28,00,58,16.60
2015,07,28,00,59,16.60
2015,07,28,01,00,16.60
2015,07,28,01,01,16.60
2015,07,28,01,02,16.60
2015,07,28,01,03,16.60
2015,07,28,01,04,16.60
2015,07,28,01,05,16.60
2015,07,28,01,06,16.60
2015,07,28,01,07,16.60
2015,07,28,01,08,16.60
2015,07,28,01,09,16.60
2015,07,28,01,10,16.60
2015,07,28,01,11,16.60
2015,07,28,01,12,16.60
2015,07,28,01,13,16.60
2015,07,28,01,14,16.60
2015,07,28,01,15,16.60
2015,07,28,01,16,16.70
2015,07,28,01,17,16.70
2015,07,28,01,18,16.70
2015,07,28,01,19,16.70
2015,07,28,01,20,16.60
2015,07,28,01,21,16.60
2015,07,28,01,22,16.60
2015,07,28,01,23,16.60
2015,07,28,01,24,16.60
2015,07,28,01,25,16.60
2015,07,28,01,26,16.50
2015,07,28,01,27,16.50
2015,07,28,01,28,16.40
2015,07,28,01,29,16.40
2015,07,28,01,30,16.30
2015,07,28,01,31,16.30
2015,07,28,01,32,16.30
2015,07,28,01,33,16.20
2015,07,28,01,34,16.20
2015,07,28,01,35,16.10
2015,07,28,01,36,16.10
2015,07,28,01,37,16.00
2015,07,28,01,38,16.00
2015,07,28,01,39,15.90
2015,07,28,01,40,15.90
2015,07,28,01,41,15.80
2015,07,28,01,42,15.80
2015,07,28,01,43,15.70
2015,07,28,01,44,15.60
2015,07,28,01,45,15.50
2015,07,28,01,46,15.40
2015,07,28,01,47,15.30
2015,07,28,01,48,15.30
2015,07,28,01,49,15.20
2015,07,28,01,50,15.20
2015,07,28,01,51,15.20
2015,07,28,01,52,15.20
2015,07,28,01,53,15.20
2015,07,28,01,54,15.20
2015,07,28,01,55,15.30
2015,07,28,01,56,15.30
2015,07,28,01,57,15.30
2015,07,28,01,58,15.30
2015,07,28,01,59,15.30
2015,07,28,02,00,15.20
2015,07,28,02,01,15.20
2015,07,28,02,02,15.20
2015,07,28,02,03,15.20
2015,07,28,02,04,15.10
2015,07,28,02,05,15.10
2015,07,28,02,06,15.00
2015,07,28,02,07,15.00
2015,07,28,02,08,15.00
2015,07,28,02,09,15.10
2015,07,28,02,10,15.20
2015,07,28,02,11,15.30
2015,07,28,02,12,15.30
2015,07,28,02,13,15.30
2015,07,28,02,14,15.30
2015,07,28,02,15,15.30
2015,07,28,02,16,15.30
2015,07,28,02,17,15.30
2015,07,28,02,18,15.20
2015,07,28,02,19,15.20
2015,07,28,02,20,15.20
2015,07,28,02,21,15.10
2015,07,28,02,22,15.10
2015,07,28,02,23,15.00
2015,07,28,02,24,15.00
2015,07,28,02,25,14.90
2015,07,28,02,26,14.90
2015,07,28,02,27,14.90
2015,07,28,02,28,14.80
2015,07,28,02,29,14.80
2015,07,28,02,30,14.80
2015,07,28,02,31,14.80
2015,07,28,02,32,14.80
2015,07,28,02,33,14.80
2015,07,28,02,34,14.90
2015,07,28,02,35,14.90
2015,07,28,02,36,14.90
2015,07,28,02,37,14.90
2015,07,28,02,38,15.00
2015,07,28,02,39,15.10
2015,07,28,02,40,15.20
2015,07,28,02,41,15.20
2015,07,28,02,42,15.30
2015,07,28,02,43,15.30
2015,07,28,02,44,15.30
2015,07,28,02,45,15.30
2015,07,28,02,46,15.30
2015,07,28,02,47,15.30
2015,07,28,02,48,15.20
2015,07,28,02,49,15.20
2015,07,28,02,50,15.20
2015,07,28,02,51,15.20
2015,07,28,02,52,15.20
2015,07,28,02,53,15.20
2015,07,28,02,54,15.20
2015,07,28,02,55,15.20
2015,07,28,02,56,15.20
2015,07,28,02,57,15.20
2015,07,28,02,58,15.20
2015,07,28,02,59,15.20
2015,07,28,03,00,15.20
2015,07,28,03,01,15.20
2015,07,28,03,02,15.20
2015,07,28,03,03,15.30
2015,07,28,03,04,15.30
2015,07,28,03,05,15.30
2015,07,28,03,06,15.20
2015,07,28,03,07,15.20
2015,07,28,03,08,15.20
2015,07,28,03,09,15.20
2015,07,28,03,10,15.20
2015,07,28,03,11,15.20
2015,07,28,03,12,15.20
2015,07,28,03,13,15.10
2015,07,28,03,14,15.10
2015,07,28,03,15,15.10
2015,07,28,03,16,15.00
2015,07,28,03,17,14.90
2015,07,28,03,18,14.90
2015,07,28,03,19,14.90
2015,07,28,03,20,14.90
2015,07,28,03,21,14.90
2015,07,28,03,22,14.90
2015,07,28,03,23,14.80
2015,07,28,03,24,14.80
2015,07,28,03,25,14.70
2015,07,28,03,26,14.60
2015,07,28,03,27,14.50
2015,07,28,03,28,14.50
2015,07,28,03,29,14.40
2015,07,28,03,30,14.40
2015,07,28,03,31,14.40
2015,07,28,03,32,14.40
2015,07,28,03,33,14.30
2015,07,28,03,34,14.30
2015,07,28,03,35,14.30
2015,07,28,03,36,14.30
2015,07,28,03,37,14.20
2015,07,28,03,38,14.20
2015,07,28,03,39,14.20
2015,07,28,03,40,14.20
2015,07,28,03,41,14.20
2015,07,28,03,42,14.20
2015,07,28,03,43,14.20
2015,07,28,03,44,14.20
2015,07,28,03,45,14.20
2015,07,28,03,46,14.20
2015,07,28,03,47,14.30
2015,07,28,03,48,14.30
2015,07,28,03,49,14.40
2015,07,28,03,50,14.40
2015,07,28,03,51,14.40
2015,07,28,03,52,14.40
2015,07,28,03,53,14.40
2015,07,28,03,54,14.40
2015,07,28,03,55,14.40
2015,07,28,03,56,14.40
2015,07,28,03,57,14.40
2015,07,28,03,58,14.40
2015,07,28,03,59,14.40
2015,07,28,04,00,14.40
2015,07,28,04,01,14.40
2015,07,28,04,02,14.40
2015,07,28,04,03,14.30
2015,07,28,05,02,14.40
2015,07,28,05,03,14.40
2015,07,28,05,04,14.40
2015,07,28,05,05,14.30
2015,07,28,05,06,14.30
2015,07,28,05,07,14.20
2015,07,28,05,08,14.20
2015,07,28,05,09,14.10
2015,07,28,05,10,14.00
2015,07,28,05,11,14.00
2015,07,28,05,12,13.90
2015,07,28,05,13,13.90
2015,07,28,05,14,13.90
2015,07,28,05,15,13.90
2015,07,28,05,16,13.90
2015,07,28,05,17,13.90
2015,07,28,05,18,13.80
2015,07,28,05,19,13.80
2015,07,28,05,20,13.80
2015,07,28,05,21,13.70
2015,07,28,05,22,13.70
2015,07,28,05,23,13.60
2015,07,28,05,24,13.60
2015,07,28,05,25,13.50
2015,07,28,05,26,13.50
2015,07,28,05,27,13.40
2015,07,28,05,28,13.30
2015,07,28,05,29,13.20
2015,07,28,05,30,13.20
2015,07,28,05,31,13.10
2015,07,28,05,32,13.00
2015,07,28,05,33,13.00
2015,07,28,05,34,12.90
2015,07,28,05,35,12.90
2015,07,28,05,36,12.90
2015,07,28,05,37,12.90
2015,07,28,05,38,12.90
2015,07,28,05,39,12.80
2015,07,28,05,40,12.80
2015,07,28,05,41,12.80
2015,07,28,05,42,12.80
2015,07,28,05,43,12.80
2015,07,28,05,44,12.80
2015,07,28,05,45,12.80
2015,07,28,05,46,12.80
2015,07,28,05,47,12.70
2015,07,28,05,48,12.70
2015,07,28,05,49,12.70
2015,07,28,05,50,12.60
2015,07,28,05,51,12.60
2015,07,28,05,52,12.60
2015,07,28,05,53,12.60
2015,07,28,05,54,12.60
2015,07,28,05,55,12.60
2015,07,28,05,56,12.60
2015,07,28,05,57,12.70
2015,07,28,05,58,12.70
2015,07,28,05,59,12.70
2015,07,28,06,00,12.80
2015,07,28,06,01,12.80
2015,07,28,06,02,12.80
2015,07,28,06,03,12.80
2015,07,28,06,04,12.90
2015,07,28,06,05,12.90
2015,07,28,06,06,12.90
2015,07,28,06,07,12.90
2015,07,28,06,08,12.90
2015,07,28,06,09,12.80
2015,07,28,06,10,12.80
2015,07,28,06,11,12.80
2015,07,28,06,12,12.80
2015,07,28,06,13,12.80
2015,07,28,06,14,12.80
2015,07,28,06,15,12.80
2015,07,28,06,16,12.80
2015,07,28,06,17,12.80
2015,07,28,06,18,12.80
2015,07,28,06,19,12.80
2015,07,28,06,20,12.80
2015,07,28,06,21,12.80
2015,07,28,06,22,12.80
2015,07,28,06,23,12.70
2015,07,28,06,24,12.70
2015,07,28,06,25,12.70
2015,07,28,06,26,12.60
2015,07,28,06,27,12.60
2015,07,28,06,28,12.60
2015,07,28,06,29,12.60
2015,07,28,06,30,12.70
2015,07,28,06,31,12.70
2015,07,28,06,32,12.70
2015,07,28,06,33,12.70
2015,07,28,06,34,12.70
2015,07,28,06,35,12.60
2015,07,28,06,36,12.70
2015,07,28,06,37,12.70
2015,07,28,06,38,12.60
2015,07,28,06,39,12.60
2015,07,28,06,40,12.60
2015,07,28,06,41,12.60
2015,07,28,06,42,12.60
2015,07,28,06,43,12.60
2015,07,28,06,44,12.60
2015,07,28,06,45,12.70
2015,07,28,06,46,12.70
2015,07,28,06,47,12.70
2015,07,28,06,48,12.70
2015,07,28,06,49,12.70
2015,07,28,06,50,12.80
2015,07,28,06,51,12.80
2015,07,28,06,52,12.80
2015,07,28,06,53,12.90
2015,07,28,06,54,13.00
2015,07,28,06,55,13.10
2015,07,28,06,56,13.20
2015,07,28,06,57,13.20
2015,07,28,06,58,13.20
2015,07,28,06,59,13.30
2015,07,28,07,00,13.30
2015,07,28,07,01,13.30
2015,07,28,07,02,13.30
2015,07,28,07,03,13.20
2015,07,28,07,04,13.20
2015,07,28,07,05,13.20
2015,07,28,07,06,13.30
2015,07,28,07,07,13.30
2015,07,28,07,08,13.30
2015,07,28,07,09,13.30
2015,07,28,07,10,13.30
2015,07,28,07,11,13.30
2015,07,28,07,12,13.30
2015,07,28,07,13,13.30
2015,07,28,07,14,13.30
2015,07,28,07,15,13.30
2015,07,28,07,16,13.30
2015,07,28,07,17,13.30
2015,07,28,07,18,13.30
2015,07,28,07,19,13.30
2015,07,28,07,20,13.40
2015,07,28,07,21,13.40
2015,07,28,07,22,13.40
2015,07,28,07,23,13.40
2015,07,28,07,24,13.40
2015,07,28,07,25,13.50
2015,07,28,07,26,13.50
2015,07,28,07,27,13.50
2015,07,28,07,28,13.60
2015,07,28,07,29,13.60
2015,07,28,07,30,13.70
2015,07,28,07,31,13.70
2015,07,28,07,32,13.80
2015,07,28,07,33,13.80
2015,07,28,07,34,13.90
2015,07,28,07,35,14.00
2015,07,28,07,36,14.00
2015,07,28,07,37,14.10
2015,07,28,07,38,14.10
2015,07,28,07,39,14.20
2015,07,28,07,40,14.20
2015,07,28,07,41,14.30
2015,07,28,07,42,14.30
2015,07,28,07,43,14.30
2015,07,28,07,44,14.40
2015,07,28,07,45,14.40
2015,07,28,07,46,14.50
2015,07,28,07,47,14.60
2015,07,28,07,48,14.70
2015,07,28,07,49,14.80
2015,07,28,07,50,14.90
2015,07,28,07,51,15.10
2015,07,28,07,52,15.20
2015,07,28,07,53,15.30
2015,07,28,07,54,15.30
2015,07,28,07,55,15.30
2015,07,28,07,56,15.30
2015,07,28,07,57,15.40
2015,07,28,07,58,15.50
2015,07,28,07,59,15.60
2015,07,28,08,00,15.70
2015,07,28,08,01,15.80
2015,07,28,08,02,15.90
2015,07,28,08,03,16.00
2015,07,28,08,04,16.10
2015,07,28,08,05,16.20
2015,07,28,08,06,16.30
2015,07,28,08,07,16.30
2015,07,28,08,08,16.30
2015,07,28,08,09,16.30
2015,07,28,08,10,16.30
2015,07,28,08,11,16.30
2015,07,28,08,12,16.30
2015,07,28,08,13,16.30
2015,07,28,08,14,16.30
2015,07,28,08,15,16.30
2015,07,28,08,16,16.40
2015,07,28,08,17,16.40
2015,07,28,08,18,16.40
2015,07,28,08,19,16.40
2015,07,28,08,20,16.50
2015,07,28,08,21,16.50
2015,07,28,08,22,16.60
2015,07,28,08,23,16.70
2015,07,28,08,24,16.70
2015,07,28,08,25,16.80
2015,07,28,08,26,16.90
2015,07,28,08,27,17.00
2015,07,28,08,28,17.00
2015,07,28,08,29,17.00
2015,07,28,08,30,17.00
2015,07,28,08,31,17.00
2015,07,28,08,32,17.00
2015,07,28,08,33,16.90
2015,07,28,08,34,16.90
2015,07,28,08,35,16.80
2015,07,28,08,36,16.80
2015,07,28,08,37,16.80
2015,07,28,08,38,16.80
2015,07,28,08,39,16.70
2015,07,28,08,40,16.60
2015,07,28,08,41,16.60
2015,07,28,08,42,16.60
2015,07,28,08,43,16.60
2015,07,28,08,44,16.60
2015,07,28,08,45,16.70
2015,07,28,08,46,16.70
2015,07,28,08,47,16.80
2015,07,28,08,48,16.80
2015,07,28,08,49,16.80
2015,07,28,08,50,16.90
2015,07,28,08,51,16.90
2015,07,28,08,52,16.90
2015,07,28,08,53,16.90
2015,07,28,08,54,16.80
2015,07,28,08,55,16.80
2015,07,28,08,56,16.90
2015,07,28,08,57,16.80
2015,07,28,08,58,16.80
2015,07,28,08,59,16.90
2015,07,28,09,00,17.00
2015,07,28,09,01,17.00
2015,07,28,09,02,17.10
2015,07,28,09,03,17.10
2015,07,28,09,04,17.20
2015,07,28,09,05,17.30
2015,07,28,09,06,17.40
2015,07,28,09,07,17.40
2015,07,28,09,08,17.50
2015,07,28,09,09,17.50
2015,07,28,09,10,17.50
2015,07,28,09,11,17.50
2015,07,28,09,12,17.70
2015,07,28,09,13,17.80
2015,07,28,09,14,17.90
2015,07,28,09,15,17.90
2015,07,28,09,16,18.00
2015,07,28,09,17,18.10
2015,07,28,09,18,18.20
2015,07,28,09,19,18.20
2015,07,28,09,20,18.20
2015,07,28,09,21,18.20
2015,07,28,09,22,18.20
2015,07,28,09,23,18.20
2015,07,28,09,24,18.20
2015,07,28,09,25,18.30
2015,07,28,09,26,18.30
2015,07,28,09,27,18.40
2015,07,28,09,28,18.50
2015,07,28,09,29,18.60
2015,07,28,09,30,18.60
2015,07,28,09,31,18.60
2015,07,28,09,32,18.70
2015,07,28,09,33,18.70
2015,07,28,09,34,18.80
2015,07,28,09,35,18.80
2015,07,28,09,36,18.80
2015,07,28,09,37,18.80
2015,07,28,09,38,18.80
2015,07,28,09,39,18.80
2015,07,28,09,40,18.80
2015,07,28,09,41,18.80
2015,07,28,09,42,18.80
2015,07,28,09,43,18.70
2015,07,28,09,44,18.70
2015,07,28,09,45,18.70
2015,07,28,09,46,18.70
2015,07,28,09,47,18.70
2015,07,28,09,48,18.80
2015,07,28,09,49,18.80
2015,07,28,09,50,18.90
2015,07,28,09,51,18.90
2015,07,28,09,52,18.80
2015,07,28,09,53,18.80
2015,07,28,09,54,18.70
2015,07,28,09,55,18.60
2015,07,28,09,56,18.50
2015,07,28,09,57,18.40
2015,07,28,09,58,18.30
2015,07,28,09,59,18.40
2015,07,28,10,00,18.40
2015,07,28,10,01,18.40
2015,07,28,10,02,18.40
2015,07,28,10,03,18.30
2015,07,28,10,04,18.30
2015,07,28,10,05,18.30
2015,07,28,10,06,18.30
2015,07,28,10,07,18.20
2015,07,28,10,08,18.20
2015,07,28,10,09,18.20
2015,07,28,10,10,18.20
2015,07,28,10,11,18.20
2015,07,28,10,12,18.30
2015,07,28,10,13,18.30
2015,07,28,10,14,18.40
2015,07,28,10,15,18.50
2015,07,28,10,16,18.60
2015,07,28,10,17,18.60
2015,07,28,10,18,18.60
2015,07,28,10,19,18.50
2015,07,28,10,20,18.50
2015,07,28,10,21,18.40
2015,07,28,10,22,18.40
2015,07,28,10,23,18.30
2015,07,28,10,24,18.40
2015,07,28,10,25,18.50
2015,07,28,10,26,18.60
2015,07,28,10,27,18.60
2015,07,28,10,28,18.70
2015,07,28,10,29,18.70
2015,07,28,10,30,18.80
2015,07,28,10,31,18.90
2015,07,28,10,32,18.90
2015,07,28,10,33,19.00
2015,07,28,10,34,19.00
2015,07,28,10,35,19.10
2015,07,28,10,36,19.30
2015,07,28,10,37,19.30
2015,07,28,10,38,19.30
2015,07,28,10,39,19.30
2015,07,28,10,40,19.30
2015,07,28,10,41,19.30
2015,07,28,10,42,19.40
2015,07,28,10,43,19.40
2015,07,28,10,44,19.40
2015,07,28,10,45,19.50
2015,07,28,10,46,19.60
2015,07,28,10,47,19.80
2015,07,28,10,48,19.80
2015,07,28,10,49,19.90
2015,07,28,10,50,20.00
2015,07,28,10,51,20.10
2015,07,28,10,52,20.20
2015,07,28,10,53,20.10
2015,07,28,10,54,20.10
2015,07,28,10,55,20.10
2015,07,28,10,56,20.10
2015,07,28,10,57,20.10
2015,07,28,10,58,20.10
2015,07,28,10,59,20.10
2015,07,28,11,00,20.20
2015,07,28,11,01,20.20
2015,07,28,11,02,20.20
2015,07,28,11,03,20.20
2015,07,28,11,04,20.20
2015,07,28,11,05,20.10
2015,07,28,11,06,20.10
2015,07,28,11,07,20.10
2015,07,28,11,08,20.10
2015,07,28,11,09,20.00
2015,07,28,11,10,20.00
2015,07,28,11,11,19.90
2015,07,28,11,12,19.80
2015,07,28,11,13,19.70
2015,07,28,11,14,19.70
2015,07,28,11,15,19.60
2015,07,28,11,16,19.60
2015,07,28,11,17,19.60
2015,07,28,11,18,19.60
2015,07,28,11,19,19.70
2015,07,28,11,20,19.70
2015,07,28,11,21,19.80
2015,07,28,11,22,19.80
2015,07,28,11,23,19.80
2015,07,28,11,24,19.90
2015,07,28,11,25,19.90
2015,07,28,11,26,19.90
2015,07,28,11,27,19.90
2015,07,28,11,28,20.00
2015,07,28,11,29,20.00
2015,07,28,11,30,20.10
2015,07,28,11,31,20.20
2015,07,28,11,32,20.20
2015,07,28,11,33,20.20
2015,07,28,11,34,20.20
2015,07,28,11,35,20.30
2015,07,28,11,36,20.30
2015,07,28,11,37,20.30
2015,07,28,11,38,20.20
2015,07,28,11,39,20.20
2015,07,28,11,40,20.10
2015,07,28,11,41,20.10
2015,07,28,11,42,20.10
2015,07,28,11,43,20.10
2015,07,28,11,44,20.20
2015,07,28,11,45,20.20
2015,07,28,11,46,20.20
2015,07,28,11,47,20.20
2015,07,28,11,48,20.30
2015,07,28,11,49,20.30
2015,07,28,11,50,20.30
2015,07,28,11,51,20.30
2015,07,28,11,52,20.30
2015,07,28,11,53,20.30
2015,07,28,11,54,20.40
2015,07,28,11,55,20.40
2015,07,28,11,56,20.40
2015,07,28,11,57,20.40
2015,07,28,11,58,20.50
2015,07,28,11,59,20.50
2015,07,28,12,00,20.60
2015,07,28,12,01,20.70
2015,07,28,12,02,20.80
2015,07,28,12,03,20.80
2015,07,28,12,04,20.80
2015,07,28,12,05,20.80
2015,07,28,12,06,20.80
2015,07,28,12,07,20.80
2015,07,28,12,08,20.80
2015,07,28,12,09,20.90
2015,07,28,12,10,20.90
2015,07,28,12,11,21.00
2015,07,28,12,12,21.10
2015,07,28,12,13,21.10
2015,07,28,12,14,21.10
2015,07,28,12,15,21.20
2015,07,28,12,16,21.30
2015,07,28,12,17,21.40
2015,07,28,12,18,21.50
2015,07,28,12,19,21.60
2015,07,28,12,20,21.70
2015,07,28,12,21,21.70
2015,07,28,12,22,21.80
2015,07,28,12,23,21.90
2015,07,28,12,24,22.00
2015,07,28,12,25,22.00
2015,07,28,12,26,22.00
2015,07,28,12,27,22.00
2015,07,28,12,28,22.10
2015,07,28,12,29,22.20
2015,07,28,12,30,22.20
2015,07,28,12,31,22.20
2015,07,28,12,32,22.10
2015,07,28,12,33,22.00
2015,07,28,12,34,22.00
2015,07,28,12,35,21.90
2015,07,28,12,36,21.80
2015,07,28,12,37,21.80
2015,07,28,12,38,21.80
2015,07,28,12,39,21.80
2015,07,28,12,40,21.90
2015,07,28,12,41,21.90
2015,07,28,12,42,21.90
2015,07,28,12,43,21.90
2015,07,28,12,44,21.90
2015,07,28,12,45,22.00
2015,07,28,12,46,22.00
2015,07,28,12,47,22.10
2015,07,28,12,48,22.20
2015,07,28,12,49,22.20
2015,07,28,12,50,22.20
2015,07,28,12,51,22.10
2015,07,28,12,52,21.90
2015,07,28,12,53,21.80
2015,07,28,12,54,21.90
2015,07,28,12,55,21.90
2015,07,28,12,56,21.90
2015,07,28,12,57,21.90
2015,07,28,12,58,22.00
2015,07,28,12,59,22.00
2015,07,28,13,00,22.00
2015,07,28,13,01,22.00
2015,07,28,13,02,21.90
2015,07,28,13,03,21.90
2015,07,28,13,04,21.80
2015,07,28,13,05,21.70
2015,07,28,13,06,21.70
2015,07,28,13,07,21.70
2015,07,28,13,08,21.70
2015,07,28,13,09,21.70
2015,07,28,13,10,21.80
2015,07,28,13,11,21.90
2015,07,28,13,12,22.00
2015,07,28,13,13,22.10
2015,07,28,13,14,22.20
2015,07,28,13,15,22.10
2015,07,28,13,16,22.10
2015,07,28,13,17,22.00
2015,07,28,13,18,22.00
2015,07,28,13,19,21.90
2015,07,28,13,20,21.90
2015,07,28,13,21,21.90
2015,07,28,13,22,21.80
2015,07,28,13,23,21.80
2015,07,28,13,24,21.70
2015,07,28,13,25,21.70
2015,07,28,13,26,21.70
2015,07,28,13,27,21.80
2015,07,28,13,28,21.80
2015,07,28,13,29,21.70
2015,07,28,13,30,21.70
2015,07,28,13,31,21.70
2015,07,28,13,32,21.70
2015,07,28,13,33,21.70
2015,07,28,13,34,21.70
2015,07,28,13,35,21.60
2015,07,28,13,36,21.60
2015,07,28,13,37,21.50
2015,07,28,13,38,21.50
2015,07,28,13,39,21.60
2015,07,28,13,40,21.50
2015,07,28,13,41,21.50
2015,07,28,13,42,21.50
2015,07,28,13,43,21.50
2015,07,28,13,44,21.60
2015,07,28,13,45,21.60
2015,07,28,13,46,21.60
2015,07,28,13,47,21.60
2015,07,28,13,48,21.60
2015,07,28,13,49,21.70
2015,07,28,13,50,21.70
2015,07,28,13,51,21.80
2015,07,28,13,52,21.80
2015,07,28,13,53,21.80
2015,07,28,13,54,21.90
2015,07,28,13,55,22.00
2015,07,28,13,56,22.10
2015,07,28,13,57,22.10
2015,07,28,13,58,22.20
2015,07,28,13,59,22.20
2015,07,28,14,00,22.20
2015,07,28,14,01,22.20
2015,07,28,14,02,22.10
2015,07,28,14,03,22.10
2015,07,28,14,04,22.00
2015,07,28,14,05,22.00
2015,07,28,14,06,22.00
2015,07,28,14,07,21.90
2015,07,28,14,08,21.90
2015,07,28,14,09,22.00
2015,07,28,14,10,22.00
2015,07,28,14,11,22.00
2015,07,28,14,12,22.00
2015,07,28,14,13,22.00
2015,07,28,14,14,22.00
2015,07,28,14,15,22.00
2015,07,28,14,16,22.10
2015,07,28,14,17,22.20
2015,07,28,14,18,22.10
2015,07,28,14,19,22.10
2015,07,28,14,20,22.10
2015,07,28,14,21,22.00
2015,07,28,14,22,22.10
2015,07,28,14,23,22.10
2015,07,28,14,24,22.20
2015,07,28,14,25,22.30
2015,07,28,14,26,22.30
2015,07,28,14,27,22.30
2015,07,28,14,28,22.30
2015,07,28,14,29,22.40
2015,07,28,14,30,22.40
2015,07,28,14,31,22.40
2015,07,28,14,32,22.40
2015,07,28,14,33,22.40
2015,07,28,14,34,22.40
2015,07,28,14,35,22.50
2015,07,28,14,36,22.50
2015,07,28,14,37,22.40
2015,07,28,14,38,22.40
2015,07,28,14,39,22.40
2015,07,28,14,40,22.40
2015,07,28,14,41,22.40
2015,07,28,14,42,22.40
2015,07,28,14,43,22.30
2015,07,28,14,44,22.30
2015,07,28,14,45,22.30
2015,07,28,14,46,22.30
2015,07,28,14,47,22.40
2015,07,28,14,48,22.40
2015,07,28,14,49,22.40
2015,07,28,14,50,22.40
2015,07,28,14,51,22.40
2015,07,28,14,52,22.40
2015,07,28,14,53,22.50
2015,07,28,14,54,22.50
2015,07,28,14,55,22.50
2015,07,28,14,56,22.60
2015,07,28,14,57,22.60
2015,07,28,14,58,22.50
2015,07,28,14,59,22.50
2015,07,28,15,00,22.40
2015,07,28,15,01,22.30
2015,07,28,15,02,22.30
2015,07,28,15,03,22.40
2015,07,28,15,04,22.50
2015,07,28,15,05,22.50
2015,07,28,15,06,22.60
2015,07,28,15,07,22.60
2015,07,28,15,08,22.70
2015,07,28,15,09,22.80
2015,07,28,15,10,22.80
2015,07,28,15,11,22.80
2015,07,28,15,12,22.80
2015,07,28,15,13,22.80
2015,07,28,15,14,22.80
2015,07,28,15,15,22.80
2015,07,28,15,16,22.80
2015,07,28,15,17,22.80
2015,07,28,15,18,22.70
2015,07,28,15,19,22.70
2015,07,28,15,20,22.80
2015,07,28,15,21,22.80
2015,07,28,15,22,22.90
2015,07,28,15,23,22.90
2015,07,28,15,24,23.00
2015,07,28,15,25,23.00
2015,07,28,15,26,23.10
2015,07,28,15,27,23.00
2015,07,28,15,28,23.00
2015,07,28,15,29,23.10
2015,07,28,15,30,23.10
2015,07,28,15,31,23.10
2015,07,28,15,32,23.10
2015,07,28,15,33,23.10
2015,07,28,15,34,23.10
2015,07,28,15,35,23.10
2015,07,28,15,36,23.10
2015,07,28,15,37,23.10
2015,07,28,15,38,23.00
2015,07,28,15,39,22.90
2015,07,28,15,40,22.90
2015,07,28,15,41,22.90
2015,07,28,15,42,22.90
2015,07,28,15,43,23.00
2015,07,28,15,44,23.00
2015,07,28,15,45,23.00
2015,07,28,15,46,22.90
2015,07,28,15,47,22.90
2015,07,28,15,48,22.90
2015,07,28,15,49,22.90
2015,07,28,15,50,22.90
2015,07,28,15,51,22.90
2015,07,28,15,52,23.00
2015,07,28,15,53,23.00
2015,07,28,15,54,23.00
2015,07,28,15,55,23.00
2015,07,28,15,56,23.00
2015,07,28,15,57,22.90
2015,07,28,15,58,22.90
2015,07,28,15,59,22.80
2015,07,28,16,00,22.80
2015,07,28,16,01,22.80
2015,07,28,16,02,22.80
2015,07,28,16,03,22.80
2015,07,28,16,04,22.90
2015,07,28,16,05,22.90
2015,07,28,16,06,23.00
2015,07,28,16,07,23.10
2015,07,28,16,08,23.20
2015,07,28,16,09,23.20
2015,07,28,16,10,23.30
2015,07,28,16,11,23.30
2015,07,28,16,12,23.30
2015,07,28,16,13,23.40
2015,07,28,16,14,23.40
2015,07,28,16,15,23.40
2015,07,28,16,16,23.30
2015,07,28,16,17,23.40
2015,07,28,16,18,23.40
2015,07,28,16,19,23.40
2015,07,28,16,20,23.40
2015,07,28,16,21,23.40
2015,07,28,16,22,23.50
2015,07,28,16,23,23.50
2015,07,28,16,24,23.60
2015,07,28,16,25,23.70
2015,07,28,16,26,23.80
2015,07,28,16,27,23.90
2015,07,28,16,28,23.90
2015,07,28,16,29,24.10
2015,07,28,16,30,24.10
2015,07,28,16,31,24.20
2015,07,28,16,32,24.20
2015,07,28,16,33,24.30
2015,07,28,16,34,24.30
2015,07,28,16,35,24.40
2015,07,28,16,36,24.40
2015,07,28,16,37,24.50
2015,07,28,16,38,24.40
2015,07,28,16,39,24.40
2015,07,28,16,40,24.40
2015,07,28,16,41,24.40
2015,07,28,16,42,24.40
2015,07,28,16,43,24.40
2015,07,28,16,44,24.50
2015,07,28,16,45,24.50
2015,07,28,16,46,24.60
2015,07,28,16,47,24.60
2015,07,28,16,48,24.60
2015,07,28,16,49,24.60
2015,07,28,16,50,24.50
2015,07,28,16,51,24.50
2015,07,28,16,52,24.50
2015,07,28,16,53,24.50
2015,07,28,16,54,24.50
2015,07,28,16,55,24.50
2015,07,28,16,56,24.50
2015,07,28,16,57,24.50
2015,07,28,16,58,24.50
2015,07,28,16,59,24.50
2015,07,28,17,00,24.50
2015,07,28,17,01,24.50
2015,07,28,17,02,24.40
2015,07,28,17,03,24.40
2015,07,28,17,04,24.40
2015,07,28,17,05,24.40
2015,07,28,17,06,24.40
2015,07,28,17,07,24.30
2015,07,28,17,08,24.30
2015,07,28,17,09,24.30
2015,07,28,17,10,24.30
2015,07,28,17,11,24.30
2015,07,28,17,12,24.30
2015,07,28,17,13,24.40
2015,07,28,17,14,24.40
2015,07,28,17,15,24.50
2015,07,28,17,16,24.60
2015,07,28,17,17,24.60
2015,07,28,17,18,24.60
2015,07,28,17,19,24.60
2015,07,28,17,20,24.70
2015,07,28,17,21,24.70
2015,07,28,17,22,24.70
2015,07,28,17,23,24.80
2015,07,28,17,24,24.80
2015,07,28,17,25,24.80
2015,07,28,17,26,24.80
2015,07,28,17,27,24.90
2015,07,28,17,28,24.90
2015,07,28,17,29,25.00
2015,07,28,17,30,25.00
2015,07,28,17,31,24.90
2015,07,28,17,32,24.90
2015,07,28,17,33,24.90
2015,07,28,17,34,24.90
2015,07,28,17,35,24.90
2015,07,28,17,36,24.90
2015,07,28,17,37,24.90
2015,07,28,17,38,24.90
2015,07,28,17,39,25.00
2015,07,28,17,40,25.00
2015,07,28,17,41,25.10
2015,07,28,17,42,25.10
2015,07,28,17,43,25.20
2015,07,28,17,44,25.30
2015,07,28,17,45,25.30
2015,07,28,17,46,25.30
2015,07,28,17,47,25.30
2015,07,28,17,48,25.30
2015,07,28,17,49,25.20
2015,07,28,17,50,25.20
2015,07,28,17,51,25.10
2015,07,28,17,52,25.10
2015,07,28,17,53,25.10
2015,07,28,17,54,25.10
2015,07,28,17,55,25.00
2015,07,28,17,56,25.00
2015,07,28,17,57,25.10
2015,07,28,17,58,25.10
2015,07,28,17,59,25.10
2015,07,28,18,00,25.10
2015,07,28,18,01,25.10
2015,07,28,18,02,25.00
2015,07,28,18,03,25.00
2015,07,28,18,04,25.00
2015,07,28,18,05,25.00
2015,07,28,18,06,24.90
2015,07,28,18,07,24.90
2015,07,28,18,08,24.90
2015,07,28,18,09,25.00
2015,07,28,18,10,25.00
2015,07,28,18,11,24.90
2015,07,28,18,12,25.00
2015,07,28,18,13,24.90
2015,07,28,18,14,24.90
2015,07,28,18,15,25.00
2015,07,28,18,16,25.00
2015,07,28,18,17,25.00